Location: ??????
(56.0120°N, 39.1740°E)
Time: 06:58:35
(UTC+00:00)

ARIANE 6 FM1 Upper Stage - Pass Details

Date: 14 April 2026
Orbit: 526 x 602 km, 62.0° (Epoch: 12 May)

Event Time Altitude Azimuth Distance (km) Brightness Sun altitude
Rises 21:39:27 0° 300° (WNW) 2,688 6.5 -24.2°
Reaches altitude 10° 21:41:42 10° 305° (NW) 1,788 5.6 -24.2°
Maximum altitude 21:45:39 56° 25° (NNE) 634 3.1 -24.2°
Enters shadow 21:46:24 47° 68° (ENE) 709 3.2 -24.2°
